Temp
11 11 11 12 12 12 16 18 19 19 20 20 21 21 22 23 26 25 33 32 32 31 31 34 35 36 36 38 38 38 34 37 38 37 37 39 38 38 38 37 37 37 37 34 31
10 10 10 11 12 13 14 17 19 20 20 20 21 21 22 22 23 32 32 32 31 31 32 36 38 38 38 38 38 37 25 35 39 40 38 39 39 38 37 38 36 35 35 32 31
10 10 10 10 11 13 16 18 19 20 20 20 21 21 22 23 30 37 31 31 31 31 33 37 38 39 39 40 39 38 33 39 39 40 40 39 39 39 39 38 37 35 33 33 32
10 10 10 10 12 14 16 19 19 19 20 20 21 21 22 22 34 33 31 31 31 31 34 37 38 38 39 38 39 38 39 39 39 39 39 39 40 39 39 38 39 36 34 33 33
10 10 10 10 11 13 16 18 19 20 20 21 21 21 23 31 35 31 31 32 31 31 35 38 38 39 39 39 39 39 39 39 40 39 39 40 39 39 39 38 39 36 34 33 33
9 10 10 10 11 13 16 18 19 20 21 21 21 21 24 32 33 33 32 33 35 34 36 38 39 40 39 39 38 40 39 39 40 40 40 39 40 39 39 38 37 36 35 35 34
9 9 9 10 11 14 16 18 20 21 21 21 21 20 29 34 33 33 33 35 36 36 38 38 39 39 41 39 40 39 38 40 40 40 39 39 39 39 39 38 37 36 36 35 34
9 10 10 11 13 15 17 19 21 22 21 21 21 22 31 33 32 32 33 35 35 36 37 38 38 39 40 40 39 39 39 38 38 39 39 39 30 40 39 38 37 37 35 35 34
9 10 11 13 14 16 19 20 20 21 21 21 21 27 33 31 33 34 34 36 36 36 36 36 37 39 40 38 38 39 38 38 36 40 40 39 37 40 41 40 38 36 36 35 34
9 10 12 15 16 17 20 19 19 19 20 21 25 29 32 35 35 34 34 35 37 38 37 37 38 38 39 39 37 38 39 37 38 38 39 39 38 40 41 40 40 38 37 35 34
9 9 12 16 17 17 19 21 25 26 27 33 33 34 34 34 33 34 35 35 37 37 36 38 37 37 38 39 40 39 39 39 39 40 38 38 39 40 41 41 40 40 37 36 35
8 9 11 16 18 18 17 28 27 26 30 33 33 34 33 33 34 36 35 35 36 36 37 38 37 39 40 40 39 39 38 38 39 39 39 38 38 40 41 41 41 40 39 37 36
8 8 12 17 18 19 24 27 24 25 30 34 34 34 34 34 34 36 36 36 36 36 37 37 39 39 39 39 39 39 38 38 39 39 39 39 38 39 41 41 41 41 40 39 37
8 9 13 18 18 24 26 24 24 25 31 33 33 34 33 34 34 37 36 37 37 36 37 38 39 39 38 38 39 38 39 39 38 38 37 40 37 34 40 40 41 41 40 40 38
8 10 13 14 15 26 24 24 24 26 32 34 34 33 35 34 36 36 37 37 36 37 37 37 38 38 37 38 39 38 40 39 38 38 38 39 39 38 40 40 40 40 40 40 39
10 11 14 15 16 23 23 24 25 29 32 33 34 33 33 34 35 37 36 37 37 37 37 38 40 39 38 39 39 40 39 39 38 38 37 39 39 39 38 39 40 40 40 40 40
11 13 13 15 26 22 23 27 30 32 34 33 34 34 35 35 35 35 34 34 35 34 35 36 37 38 38 38 39 39 38 36 36 36 37 40 39 39 40 41 41 41 41 40 40
14 15 18 18 21 21 24 29 30 33 34 34 34 35 34 35 35 35 35 35 36 37 37 35 35 37 38 38 38 38 39 37 34 37 38 40 38 39 42 42 42 42 42 41 41
16 18 22 23 21 22 27 30 33 33 33 33 34 34 35 35 35 36 35 36 37 37 36 37 37 40 38 38 38 38 37 40 39 40 39 36 39 40 41 41 41 42 42 42 42
17 25 26 22 22 24 28 28 31 32 31 32 32 34 35 35 34 35 36 37 37 38 38 37 35 38 38 38 39 38 40 38 38 36 36 39 38 39 40 40 41 41 42 42 42
19 28 25 23 24 28 29 32 31 32 31 31 33 33 34 34 34 36 35 37 36 37 38 37 37 36 38 37 37 37 37 39 39 39 37 37 39 42 40 40 41 41 42 42 41
26 29 25 24 27 30 31 31 19 31 31 31 31 32 33 34 33 34 35 36 37 37 36 36 37 36 37 38 39 39 38 39 37 37 39 39 38 41 41 41 42 41 42 41 40
28 29 25 26 28 31 31 30 30 30 31 31 31 32 33 33 32 34 35 36 35 35 35 37 35 34 36 38 38 38 38 39 39 40 38 38 39 42 42 41 41 41 42 41 39
27 29 29 28 29 29 30 30 30 31 30 31 31 32 32 32 33 33 34 35 35 35 26 35 36 35 35 36 38 36 37 38 39 39 39 39 40 40 40 40 41 41 41 41 39
28 28 29 29 30 30 30 29 29 30 31 31 30 31 31 31 33 33 34 35 35 29 33 35 34 36 36 37 38 38 38 37 37 39 38 40 40 40 41 41 40 40 40 39 40
26 27 28 29 29 28 26 29 29 30 30 30 30 32 32 32 33 31 31 30 26 20 35 36 34 35 35 36 37 37 38 38 38 39 39 39 40 42 40 40 39 40 39 38 39
23 25 25 27 29 29 30 30 29 30 30 30 30 31 31 32 32 33 32 23 29 33 34 33 34 34 33 35 36 35 37 37 38 39 39 38 39 41 40 39 38 37 37 37 37
Height
803 800 796 792 789 786 783 781 778 776 774 772 769 767 765 762 759 757 751 750 750 750 750 747 747 744 742 736 731 724 750 743 739 744 741 722 729 724 723 733 732 735 733 746 761
802 799 796 793 790 786 784 781 778 776 773 771 769 766 764 761 758 751 748 748 749 749 750 743 738 736 734 729 729 734 790 744 721 719 727 722 724 725 729 731 739 743 743 752 760
800 798 796 793 790 786 782 780 778 775 774 771 769 766 764 762 755 737 743 746 747 748 747 741 736 732 732 722 726 728 763 726 725 719 714 720 723 718 724 731 731 743 751 756 760
798 796 794 791 787 784 781 779 777 776 774 771 769 767 764 764 759 739 742 744 745 747 747 740 735 736 732 735 721 740 726 725 724 721 721 722 716 724 723 728 721 734 747 756 759
797 794 792 789 786 783 780 777 775 773 772 771 769 767 765 756 742 741 742 742 744 746 742 737 735 730 736 732 726 732 726 723 720 722 720 716 723 724 726 723 723 736 747 753 757
797 794 791 788 785 782 780 777 775 772 770 768 768 767 766 757 741 742 743 743 741 743 739 734 729 721 726 730 733 721 724 723 718 720 716 725 721 720 718 722 729 737 744 748 753
794 791 789 786 783 780 777 774 772 770 768 767 767 767 759 741 741 741 742 739 738 739 733 730 728 728 718 730 720 723 738 723 719 718 722 719 732 726 714 721 732 737 740 745 750
791 789 786 784 781 778 775 772 769 767 767 767 767 768 750 738 742 741 740 738 739 737 735 730 731 726 723 715 725 735 731 744 729 723 719 726 791 717 709 720 730 732 740 743 746
790 786 783 781 778 775 771 769 767 766 766 766 767 762 743 738 738 737 737 736 735 735 735 735 732 729 721 741 741 732 749 745 749 719 722 729 743 714 704 709 722 731 736 740 746
789 785 782 778 775 772 769 767 766 765 765 767 763 760 738 732 730 733 735 735 730 731 734 735 733 738 734 735 757 746 737 742 738 731 726 733 733 712 701 707 714 721 729 737 743
789 785 781 777 774 771 768 768 765 762 758 735 734 732 729 731 735 734 732 735 731 731 745 732 746 749 735 724 718 726 732 736 726 718 734 735 729 716 703 702 710 713 720 729 737
788 784 779 775 772 770 768 758 757 762 749 732 733 732 733 733 730 725 729 735 734 744 733 735 747 725 718 716 723 726 740 741 725 720 729 732 732 712 702 700 700 704 709 721 728
787 782 778 774 770 769 765 759 763 761 750 726 726 728 728 731 729 721 724 724 731 739 732 738 723 715 722 725 731 730 737 736 735 725 721 727 733 719 698 694 696 697 697 703 719
785 780 776 773 774 767 761 764 763 762 750 731 731 724 727 726 729 712 716 719 723 734 727 725 711 720 725 728 723 743 718 724 732 744 752 712 755 745 706 704 694 692 697 698 709
782 778 775 774 772 764 765 765 763 760 757 722 723 720 715 725 714 717 712 714 727 726 724 728 724 724 734 726 719 730 709 717 730 739 736 725 737 719 701 709 700 696 695 696 701
779 776 773 774 773 766 766 765 763 764 752 728 716 724 727 722 716 708 717 712 711 721 718 718 700 712 718 713 711 707 718 721 728 738 758 725 730 727 721 712 702 693 695 694 696
776 773 771 772 762 767 766 761 760 750 716 726 722 717 716 716 721 719 728 732 734 747 740 727 722 712 713 726 709 714 729 759 767 760 753 704 723 712 702 689 692 692 691 692 693
772 770 769 769 768 767 765 757 760 724 720 713 718 715 724 712 714 716 720 729 717 716 722 737 742 717 709 718 722 722 725 747 779 757 734 702 735 715 681 678 681 681 681 684 687
770 769 767 765 767 767 758 754 729 724 723 725 718 725 718 711 712 713 717 715 707 710 728 720 721 688 699 703 710 719 733 710 727 711 722 739 707 689 681 686 684 681 678 681 680
771 761 759 764 765 764 755 748 732 728 732 727 733 717 717 711 722 713 711 701 704 693 695 708 731 695 697 700 699 707 695 733 726 756 757 720 723 717 698 695 684 683 679 677 676
770 751 759 762 764 756 748 730 733 726 730 733 726 725 719 717 714 707 711 696 696 694 693 705 710 714 695 711 715 714 718 708 707 714 736 741 719 671 688 688 688 681 677 673 678
758 746 757 760 758 736 734 729 754 731 726 731 727 725 722 713 719 715 711 701 684 691 707 702 707 722 709 690 688 694 703 704 725 731 710 710 718 667 673 675 674 676 674 678 684
751 742 756 756 749 732 726 735 733 731 729 728 729 720 711 719 728 710 701 688 693 699 702 696 715 731 718 699 687 698 694 694 693 690 711 722 712 664 665 676 676 679 674 675 683
756 745 745 750 740 742 735 735 734 724 729 722 724 716 721 723 711 714 707 692 693 694 706 694 700 711 723 706 686 706 701 691 694 705 702 699 691 677 674 679 677 675 673 671 680
751 743 740 737 732 734 732 735 737 734 721 720 726 725 722 726 714 709 703 693 689 699 699 697 712 698 694 687 682 683 689 695 698 688 699 686 685 674 668 670 672 675 676 679 679
761 754 743 742 735 741 741 738 735 728 725 723 726 712 713 719 710 720 710 711 728 735 696 687 712 700 703 689 685 690 676 678 684 682 683 677 677 654 663 666 675 675 681 683 681
768 762 759 744 736 735 730 728 730 723 721 718 718 716 716 710 703 699 702 724 701 694 692 695 696 703 716 692 693 705 686 679 675 670 677 692 674 659 666 670 677 681 683 685 684
Wind_Speed
12 12 14 14 15 14 13 12 11 11 11 13 13 14 14 16 14 7 10 2 5 11 8 12 12 11 11 13 9 10 6 5 8 5 12 8 13 5 4 8 3 3 5 23 27
12 13 14 14 15 15 14 12 11 11 12 13 14 14 15 18 13 15 9 9 8 13 12 12 12 8 12 8 5 9 4 3 8 6 8 8 4 6 6 8 10 5 17 25 28
14 14 14 14 15 15 15 12 11 11 12 12 13 13 13 13 9 7 9 13 10 15 14 12 11 8 16 6 7 5 5 5 5 9 7 11 4 2 0 7 11 11 16 20 24
15 15 15 16 16 16 16 13 11 11 12 12 12 12 12 6 5 6 5 8 13 15 15 14 11 12 11 6 6 8 2 2 3 4 4 2 8 4 6 12 7 15 16 19 19
17 17 17 17 17 17 15 13 13 13 12 11 10 10 6 9 8 4 0 3 11 17 19 14 13 12 10 1 6 11 6 4 3 2 6 4 2 4 5 6 9 16 18 19 17
16 17 18 18 18 17 15 14 14 13 12 11 8 7 8 14 3 5 4 5 10 18 19 18 13 8 10 3 9 5 5 6 5 6 6 6 6 6 12 6 12 16 17 17 17
17 18 18 18 19 18 17 17 15 13 12 8 5 4 10 11 2 7 6 9 10 16 15 16 10 13 9 7 4 4 10 12 12 7 1 6 9 8 15 9 11 13 15 16 16
19 20 20 20 19 19 19 17 15 11 6 3 3 6 7 2 8 10 10 10 10 11 11 4 10 13 11 3 11 12 15 12 11 6 7 10 5 8 13 10 11 13 14 15 17
20 21 21 20 20 21 18 14 9 3 2 3 5 9 11 3 11 14 15 14 15 12 10 7 12 15 16 11 15 12 14 3 10 11 6 4 11 2 6 7 12 10 14 15 15
20 21 22 20 21 21 13 6 3 2 2 6 10 7 8 11 12 9 14 16 13 13 12 12 10 15 14 15 14 9 14 16 7 3 8 11 13 10 9 8 6 16 12 14 16
20 21 21 20 21 15 10 5 5 7 14 10 3 6 3 4 7 13 15 16 15 15 17 19 17 19 21 19 18 6 12 4 6 1 4 11 12 12 11 9 9 9 16 15 17
20 20 22 20 18 5 6 7 7 6 10 17 12 10 5 4 9 12 16 17 17 19 20 18 20 20 20 20 16 9 11 11 11 3 9 13 12 12 12 10 5 9 13 15 17
21 21 21 19 7 4 7 5 3 9 7 12 11 13 12 13 11 17 16 21 21 20 21 21 19 18 19 20 19 11 17 13 11 1 12 16 15 14 13 7 5 9 8 18 17
21 21 21 14 4 4 4 1 6 5 6 14 11 8 9 10 13 13 19 19 15 21 23 21 19 10 15 19 15 19 15 16 4 9 11 5 9 10 8 2 13 8 9 11 17
21 21 20 6 12 5 4 3 5 5 6 10 10 7 6 13 8 17 15 17 20 17 17 21 19 17 17 15 19 19 16 8 9 13 15 17 9 13 9 6 6 2 8 11 16
22 21 16 2 7 7 4 6 5 7 3 8 8 11 13 17 11 10 15 15 14 18 18 20 16 15 16 17 20 18 16 9 8 13 14 16 11 4 11 2 2 9 10 13 14
22 16 9 5 3 2 5 6 7 9 3 8 10 10 15 12 18 13 17 18 16 16 18 17 23 12 16 20 19 19 15 12 12 13 14 14 7 6 8 8 4 3 11 12 13
15 2 6 8 5 3 7 9 9 5 1 4 2 6 11 12 14 16 16 18 21 18 14 16 18 23 17 23 21 19 20 14 14 14 16 10 8 7 7 7 4 6 8 14 14
3 3 8 2 6 6 7 10 6 3 6 5 6 12 12 9 7 16 19 18 20 21 19 14 18 15 22 18 20 21 19 21 23 21 14 14 8 8 2 7 6 7 4 13 11
5 8 5 3 6 9 8 13 4 3 6 9 12 4 8 14 11 12 16 15 18 19 16 19 12 12 14 16 21 22 16 18 15 23 20 10 13 3 12 10 6 6 6 11 9
7 5 7 6 5 7 10 1 2 5 6 8 9 6 11 5 9 14 10 12 7 17 16 17 14 13 15 19 21 15 20 15 18 19 16 11 11 13 11 7 7 5 4 8 8
9 4 9 7 7 8 9 0 4 10 8 9 7 12 9 7 10 13 11 8 8 13 16 17 13 15 15 15 16 24 21 19 14 19 14 15 6 11 8 7 13 3 3 13 3
4 3 7 8 7 7 5 8 6 10 9 8 10 10 8 12 8 13 8 0 3 12 12 14 13 15 16 20 19 21 24 22 25 19 21 10 12 11 14 6 5 9 9 9 5
5 5 6 7 12 10 9 8 8 9 11 10 10 11 11 13 13 8 10 10 9 13 8 11 15 17 15 18 16 22 21 21 23 18 18 17 19 10 6 8 5 6 9 5 8
5 1 6 4 8 9 8 8 9 7 10 7 10 15 16 14 15 16 15 14 13 8 10 16 18 18 19 23 22 19 20 24 25 25 23 20 16 13 9 6 6 5 7 2 5
5 4 3 9 10 8 8 10 12 11 11 11 12 14 15 17 17 10 15 7 10 22 11 17 15 16 19 22 20 22 17 25 27 25 25 24 18 8 9 6 3 1 2 4 5
7 7 5 7 10 8 8 9 9 7 10 13 15 10 7 9 12 13 6 4 30 8 10 5 10 12 18 19 20 23 22 19 18 25 21 21 17 14 11 3 5 1 3 2 2
Wind_Direction
353 348 345 344 342 342 342 342 347 350 346 342 339 332 326 324 317 285 252 104 186 189 213 230 222 237 244 256 227 268 318 137 91 112 124 173 113 82 81 123 26 76 44 135 153
351 345 344 340 338 337 336 341 344 344 341 338 335 329 327 331 308 261 233 249 221 200 226 230 222 204 237 225 207 249 143 20 35 47 117 118 61 133 177 113 108 92 95 144 156
348 344 342 338 335 334 334 336 335 338 335 331 330 325 325 333 271 213 199 228 221 200 230 261 271 256 263 219 203 223 330 74 117 17 344 87 132 53 147 115 102 130 139 157 164
345 342 340 336 334 334 332 330 329 328 326 324 325 321 321 288 231 99 167 217 214 206 236 247 246 243 259 222 173 239 202 265 46 115 278 199 99 191 344 71 76 124 151 165 175
341 338 337 334 334 332 331 327 321 318 318 316 320 321 316 227 255 149 140 231 199 204 228 237 240 243 256 233 262 230 156 230 190 230 232 312 264 23 156 86 114 133 153 168 178
338 334 334 333 332 330 329 319 311 310 310 308 307 311 253 247 89 159 191 194 205 207 227 240 252 295 310 275 269 8 285 247 186 211 236 280 260 181 97 135 126 151 163 171 179
334 333 334 332 332 334 327 317 310 306 299 288 275 276 265 242 251 214 223 222 198 212 236 232 268 267 250 218 261 273 255 219 194 169 295 278 250 209 117 147 152 169 169 172 181
334 334 334 332 337 330 322 315 304 297 282 253 236 238 258 153 233 228 221 220 209 221 254 255 258 271 281 283 256 243 224 252 8 187 142 273 270 149 150 163 168 183 174 180 181
332 333 331 332 332 327 321 313 306 287 201 174 219 230 250 182 217 215 213 222 201 214 223 264 249 248 237 238 236 207 243 197 186 227 268 219 305 258 172 184 172 189 178 186 185
331 330 329 330 330 328 326 326 267 157 213 236 263 256 246 221 177 204 211 224 216 213 218 225 233 239 235 232 232 243 228 184 233 161 213 268 261 260 244 173 216 170 192 190 191
330 328 327 328 331 330 328 252 208 196 213 243 211 250 117 181 204 215 200 207 221 223 221 212 231 232 232 227 269 238 287 318 186 72 278 270 280 275 268 206 187 256 173 190 201
327 326 326 331 327 332 305 265 38 346 291 208 241 260 242 264 215 216 186 201 206 217 222 228 224 235 243 254 239 252 258 246 252 209 252 276 282 284 266 243 243 203 191 189 194
326 325 324 332 320 285 270 9 331 332 255 180 215 226 212 209 234 192 197 206 206 221 219 231 224 217 247 235 244 235 241 240 257 201 271 254 254 237 244 179 214 240 254 178 192
324 323 325 333 292 330 226 203 316 305 264 154 197 191 189 226 227 237 194 211 225 228 226 237 247 233 234 241 231 241 217 264 328 266 263 217 284 329 218 255 234 195 195 188 177
323 321 322 320 310 242 44 310 307 237 254 152 135 113 165 205 94 194 196 217 228 220 235 230 230 228 238 237 232 240 248 220 234 256 274 255 249 181 186 203 69 153 182 176 180
323 321 324 283 227 264 286 302 244 228 231 147 148 191 189 212 230 145 196 235 238 247 232 249 231 238 234 238 232 241 243 236 266 246 251 252 266 237 113 95 89 129 159 173 184
326 315 280 263 17 259 278 234 228 250 139 151 189 184 213 181 217 186 201 203 218 221 225 217 245 217 253 241 239 234 238 239 227 228 243 235 240 112 289 134 62 113 154 179 183
323 282 296 217 261 250 242 233 252 27 261 59 237 221 236 214 206 207 202 215 220 228 238 216 216 221 215 235 233 213 237 233 228 237 238 159 212 245 251 93 201 195 190 179 191
324 252 226 196 219 230 250 232 262 85 19 280 252 242 201 229 270 204 220 219 222 221 240 262 226 224 211 216 237 237 220 245 257 257 264 180 261 217 220 241 151 227 202 190 203
291 227 121 188 190 230 247 267 359 317 285 255 264 213 257 188 199 221 211 223 240 228 225 261 272 245 187 232 228 241 240 220 241 255 260 257 227 267 170 192 142 211 215 178 179
239 229 127 157 204 229 251 271 331 224 258 260 263 276 258 296 238 232 239 217 245 240 208 241 257 243 219 208 228 214 240 244 247 234 256 247 248 183 179 212 230 183 193 133 107
278 246 149 177 228 231 265 164 21 270 207 252 272 285 292 295 247 245 247 252 194 245 205 229 249 235 242 230 231 248 222 231 227 233 237 259 298 346 122 201 216 229 123 97 100
259 81 169 222 262 223 181 259 236 267 236 239 235 236 248 264 251 262 234 73 346 263 251 215 227 255 250 240 215 218 233 223 247 237 234 247 252 204 141 166 237 236 237 136 155
278 212 152 214 270 280 301 266 262 187 273 275 264 250 254 241 249 275 220 208 200 254 1 275 253 238 247 240 228 215 241 243 235 240 237 229 245 144 169 190 211 254 249 165 160
239 30 353 240 219 234 262 293 290 270 212 255 234 244 249 244 247 218 241 266 196 168 235 230 244 248 251 268 267 253 207 225 243 243 246 241 237 254 232 237 90 15 327 314 226
313 337 358 266 278 266 253 261 261 270 248 261 215 276 217 254 257 326 324 351 358 345 215 215 241 266 256 252 256 263 259 213 224 232 246 260 255 252 117 98 195 89 325 240 238
2 272 273 287 270 243 267 283 264 293 281 269 279 271 250 269 310 312 312 284 262 202 301 313 263 241 254 248 248 247 248 247 243 227 231 241 250 271 283 143 64 117 196 136 248